User: anonymous   Login
Location: PACMO
(41.3967°N, 90.3760°W)
Time: 19:26:23
(UTC-05:00)
Language:

NOAA 19 - Orbit

View from above orbital plane
View from above orbital plane
View from above satellite
View from above satellite

Ground track
Ground track

The orbit data is extracted from the following two-line orbital elements,

1 33591U 09005A   16243.41575430  .00000085  00000-0  71183-4 0  9997
2 33591  99.0471 200.8242 0014369  14.4202 345.7376 14.12101381389611
Epoch (UTC): 30 August 2016 09:58:41
Eccentricity: 0.0014369
inclination: 99.0471°
perigee height: 842 km
apogee height: 862 km
right ascension of ascending node: 200.8242°
argument of perigee: 14.4202°
revolutions per day: 14.12101381
mean anomaly at epoch: 345.7376°
orbit number at epoch: 38961

The dashed part of the orbit path shows where the satellite is in the earth's shadow,  

DLR